Ireland West Airport Knock, Ireland

11:05 AM IST on June 28, 2017 (GMT +0100)
Connaught

Weather History for EIKN - September, 2013

Change the Weather History Date:

Tuesday, September 24, 2013

  Actual Average Record
Temperature  
Mean Temperature 58 °F -  
Max Temperature 62 °F - - ()
Min Temperature 55 °F - - ()
Degree Days  
Heating Degree Days 6    
Growing Degree Days 8 (Base 50)    
Moisture  
Dew Point 57 °F    
Average Humidity 93    
Maximum Humidity 100    
Minimum Humidity 82    
Precipitation  
Precipitation 0.08 in - - ()
Sea Level Pressure  
Sea Level Pressure 29.95 in    
Wind  
Wind Speed 8 mph ()    
Max Wind Speed 13 mph    
Max Gust Speed -    
Visibility 5.1 miles    
Events Rain    
T = Trace of Precipitation, MM = Missing Value Source: Averaged Metar Reports

Daily Weather History Graph

Daily Weather History Graph

Search for Another Location

Airport or City:

Trip Planner

Search our weather history database for the weather conditions in past years. The results will help you decide how hot, cold, wet, or windy it might be!

Date:

Astronomy

Sep. 24, 2013 Rise Set
Actual Time 7:24 AM IST 7:28 PM IST
Civil Twilight 6:49 AM IST 8:03 PM IST
Nautical Twilight 6:07 AM IST 8:45 PM IST
Astronomical Twilight 5:24 AM IST 9:28 PM IST
Moon 9:49 PM IST (9/24) 1:12 PM IST (9/24)
Length of Visible Light 13h 14m
Length of Day
12h 04m
Waning Gibbous, 75% of the Moon is Illuminated
Sep 24
Waning Gibbous
Sep 27
Last Quarter
Oct 5
New
Oct 12
First Quarter
Oct 19
Full

Hourly Weather History & Observations

Time (IST) Temp. Dew Point Humidity Pressure Visibility Wind Dir Wind Speed Gust Speed Precip Events Conditions
1:00 AM 58 °F 56 °F 92% 30.04 in - SE 6.7 mph - -  
6:00 AM 57.2 °F 55.4 °F 94% 29.95 in 6.2 mi ESE 9.2 mph - N/A   Overcast
7:00 AM 56 °F 55 °F 96% 29.96 in 5 mi ESE 11.2 mph - -   Mist
7:00 AM 55.4 °F 55.4 °F 100% 29.95 in 5.0 mi ESE 10.4 mph - N/A   Mostly Cloudy
7:30 AM 55.4 °F 55.4 °F 100% 29.95 in 4.3 mi East 8.1 mph - N/A   Overcast
8:00 AM 55.4 °F 55.4 °F 100% 29.95 in 6.2 mi ESE 10.4 mph - N/A   Overcast
8:30 AM 57.2 °F 55.4 °F 94% 29.95 in 6.2 mi ESE 11.5 mph - N/A   Mostly Cloudy
9:00 AM 57.2 °F 55.4 °F 94% 29.98 in 6.2 mi SE 9.2 mph - N/A   Overcast
9:30 AM 57.2 °F 55.4 °F 94% 29.95 in 6.2 mi SE 8.1 mph - N/A   Overcast
10:00 AM 57.2 °F 55.4 °F 94% 29.95 in 6.2 mi ESE 10.4 mph - N/A   Overcast
10:30 AM 59.0 °F 55.4 °F 88% 29.95 in 6.2 mi SE 11.5 mph - N/A   Mostly Cloudy
11:00 AM 59.0 °F 55.4 °F 88% 29.95 in 4.3 mi ESE 12.7 mph - N/A   Overcast
11:30 AM 59.0 °F 57.2 °F 94% 29.95 in 4.3 mi SE 12.7 mph - N/A   Overcast
12:00 PM 59.0 °F 55.4 °F 88% 29.95 in 4.3 mi SE 10.4 mph - N/A   Mostly Cloudy
12:30 PM 59.0 °F 57.2 °F 94% 29.95 in 4.3 mi SE 9.2 mph - N/A   Overcast
1:00 PM 60 °F 57 °F 86% 29.97 in 6 mi SSE 8.9 mph - -   Mist
1:00 PM 59.0 °F 57.2 °F 94% 29.95 in 5.6 mi SSE 8.1 mph - N/A   Overcast
1:30 PM 60.8 °F 57.2 °F 88% 29.95 in 5.6 mi SSE 9.2 mph - N/A   Overcast
2:00 PM 60.8 °F 57.2 °F 88% 29.95 in 6.2 mi SSE 6.9 mph - N/A   Overcast
2:30 PM 62.6 °F 57.2 °F 82% 29.95 in 6.2 mi SSE 5.8 mph - N/A   Mostly Cloudy
3:00 PM 62.6 °F 57.2 °F 82% 29.92 in 6.2 mi SE 4.6 mph - N/A   Mostly Cloudy
3:30 PM 62.6 °F 57.2 °F 82% 29.95 in 6.2 mi SSE 5.8 mph - N/A   Overcast
4:00 PM 62.6 °F 59.0 °F 88% 29.92 in 6.2 mi East 4.6 mph - N/A   Overcast
4:30 PM 60.8 °F 59.0 °F 94% 29.92 in 6.2 mi East 4.6 mph - N/A   Overcast
5:00 PM 60.8 °F 59.0 °F 94% 29.92 in 6.2 mi East 5.8 mph - N/A   Overcast
5:30 PM 60.8 °F 59.0 °F 94% 29.92 in 5.0 mi ESE 6.9 mph - N/A   Overcast
6:00 PM 59.0 °F 59.0 °F 100% 29.92 in 4.3 mi ESE 6.9 mph - N/A Rain Light Rain
6:30 PM 59.0 °F 59.0 °F 100% 29.92 in 1.9 mi ESE 4.6 mph - N/A Rain Light Rain
7:00 PM 59 °F 58 °F 97% 29.94 in 1 mi East 6.7 mph - - Rain Light Rain
7:00 PM 59.0 °F 59.0 °F 100% 29.92 in 1.2 mi East 5.8 mph - N/A Rain Light Rain